Location: Doschendorf
(50.0069°N, 11.0602°E)
Time: 05:04:20
(UTC+00:00)

USA 229 - Pass Details

Date: 17 November 2019
Orbit: 998 x 1215 km, 63.4° (Epoch: 02 December)

Event Time Altitude Azimuth Distance (km) Brightness Sun altitude
Rises 16:33:42 0° 211° (SSW) 3,724 7.4 -10.3°
Reaches altitude 10° 16:36:15 10° 209° (SSW) 2,792 6.6 -10.7°
Maximum altitude 16:42:46 70° 127° (SE) 1,108 3.7 -11.7°
Enters shadow 16:49:17 12° 46° (NE) 2,814 5.4 -12.7°
